Weather observations for the past three days for
Fort Bridger WY
Metric (Imperial)
Date Time (mdt) Wind (kph) Vis. (km) Weather Sky Cond. Temperature (ºC) Relative Humidity Wind Chill (°C) Heat Index (°C) Pressure Precipitation (cm)
Air Dwpt 6 hour altimeter (cm) sea level (mb) 1 hr 3 hr 6 hr
Max. Min.
10 08:55 Calm 16.09 Fair CLR 9 -3.3 42% 77.14 0.0
10 08:35 Calm 16.09 Fair CLR 8.3 -3.7 43% 77.11 0.0
10 08:15 Calm 16.09 Fair CLR 7.9 -3.8 44% 77.11 0.0
10 07:55 Calm 16.09 Fair CLR 7.5 -3.8 45% 77.09 0.0
10 07:35 Calm 16.09 Fair CLR 6.1 -4.3 48% 77.09 0.0
10 07:15 Calm 16.09 Fair CLR 5.1 -4.5 50% 77.06 0.0
10 06:55 W 6 16.09 Fair CLR 3.5 -4.5 56% 77.06 0.0
10 06:35 W 7 16.09 Fair CLR 2.7 -5 57% 1 77.04 0.0
10 06:15 W 11 16.09 Fair CLR 2.6 -5 58% -0 77.04 0.0
10 05:55 W 13 16.09 Fair CLR 2.5 -5.2 8.8 2.3 57% -1 77.04 0.0
10 05:35 W 11 16.09 Fair CLR 2.7 -5.1 57% 0 77.04 0.0
10 05:15 W 9 16.09 Fair CLR 3.7 -5.6 51% 2 77.04 0.0
10 04:55 W 11 16.09 Fair CLR 3.5 -5.3 53% 1 77.04 0.0
10 04:35 W 13 16.09 Fair CLR 3.8 -5.3 52% 1 77.04 0.0
10 04:15 W 11 16.09 Fair CLR 3.8 -5.5 51% 1 77.01 0.0
10 03:55 W 9 16.09 Fair CLR 3.6 -5.5 52% 1 77.01 0.0
10 03:35 W 13 16.09 Fair CLR 3.1 -5.5 54% 0 77.01 0.0
10 03:15 W 9 16.09 Fair CLR 5 -6.1 45% 3 76.99 0.0
10 02:55 S 9 16.09 Fair CLR 6.9 -5.4 42% 5 76.96 0.0
10 02:35 SE 11 16.09 Fair CLR 5.5 -5 47% 3 76.96 0.0
10 02:15 SE 11 16.09 Fair CLR 6.5 -4.4 46% 5 76.96 0.0
10 01:55 SE 11 16.09 Fair CLR 5.6 -4 50% 3 76.96 0.0
10 01:35 SE 15 16.09 Fair CLR 5.2 -4 52% 2 76.99 0.0
10 01:15 SE 15 16.09 Fair CLR 6.2 -5.6 43% 4 76.99 0.0
10 00:55 SE 11 16.09 Fair CLR 6.8 -6.5 38% 5 76.96 0.0
10 00:35 E 7 16.09 Fair CLR 8.8 -6.3 34% 8 76.96 0.0
10 00:15 NE 7 16.09 Fair CLR 8 -5.7 38% 7 76.94 0.0
09 23:55 W 9 16.09 Fair CLR 7.9 -6.3 18.5 7.7 36% 7 76.91 0.0
09 23:35 W 6 16.09 Fair CLR 9 -6.2 34% 76.91 0.0
09 23:15 W 9 16.09 Fair CLR 8.3 -6.6 34% 7 76.89 0.0
09 22:55 NW 9 16.09 Fair CLR 8.8 -6.5 34% 8 76.89 0.0
09 22:35 N 7 16.09 Fair CLR 9.1 -7 32% 8 76.89 0.0
09 22:15 N 6 16.09 Fair CLR 9.4 -7.1 31% 76.89 0.0
09 21:55 N 15 16.09 Fair CLR 9.9 -7.1 30% 8 76.86 0.0
09 21:35 N 11 16.09 Fair CLR 10 -7.5 29% 9 76.84 0.0
09 21:15 N 15 16.09 Fair CLR 11.1 -7.6 26% 76.81 0.0
09 20:55 N 19 16.09 Fair CLR 11.8 -8 24% 76.78 0.0
09 20:35 N 20 G 28 16.09 Fair CLR 12.8 -7.6 24% 76.76 0.0
09 20:15 NW 22 G 37 16.09 Fair CLR 14.3 -8.8 19% 76.71 0.0
09 19:55 NW 30 G 41 16.09 Fair CLR 15.3 -9.5 17% 76.71 0.0
09 19:35 NW 35 G 46 16.09 Fair and Breezy CLR 16.1 -9.9 16% 76.68 0.0
09 19:15 NW 28 G 39 16.09 Fair CLR 17 -9.8 15% 76.68 0.0
09 18:55 NW 30 16.09 Fair CLR 17.5 -10.2 14% 76.66 0.0
09 18:35 NW 35 G 48 16.09 Fair and Breezy CLR 18.1 -10.5 13% 76.63 0.0
09 18:15 NW 33 G 50 16.09 Fair and Breezy CLR 18.1 -11.1 13% 76.63 0.0
09 17:55 NW 20 G 54 16.09 Fair CLR 18.1 -11.2 20.4 17.2 13% 76.63 0.0
09 17:35 W 35 G 54 16.09 Partly Cloudy and Breezy SCT095 18.7 -9.9 13% 76.63 0.0
09 17:15 NW 31 G 48 16.09 Fair CLR 18.6 -10.4 13% 76.63 0.0
09 16:55 W 37 G 50 16.09 Fair and Breezy CLR 18.9 -10 13% 76.61 0.0
09 16:35 W 35 G 52 16.09 Partly Cloudy and Breezy SCT100 19.3 -10.3 13% 76.61 0.0
09 16:15 NW 31 G 50 16.09 Fair CLR 19 -11.5 12% 76.61 0.0
09 15:55 NW 43 G 54 16.09 Fair and Windy CLR 20 -13.1 10% 76.61 0.0
09 15:35 NW 31 G 57 16.09 Fair CLR 19.9 -13.8 9% 76.61 0.0
09 15:15 W 39 G 61 16.09 Fair and Breezy CLR 19.3 -14.9 9% 76.61 0.0
09 14:55 NW 33 G 57 16.09 Fair and Breezy CLR 19.7 -15.8 8% 76.61 0.0
09 14:35 NW 30 G 48 16.09 Fair CLR 20.1 -13.5 9% 76.61 0.0
09 14:15 W 35 G 57 16.09 Fair and Breezy CLR 19.8 -14.2 9% 76.61 0.0
09 13:55 W 28 G 50 16.09 Fair CLR 19.3 -13.6 10% 76.61 0.0
09 13:35 NW 31 G 52 16.09 Fair CLR 19.4 -12.7 10% 76.63 0.0
09 13:15 NW 35 G 44 16.09 Fair and Breezy CLR 19.2 -11.5 11% 76.63 0.0
09 12:55 W 39 G 44 16.09 Fair and Breezy CLR 18.7 -11.4 12% 76.66 0.0
09 12:35 NW 22 G 46 16.09 Fair CLR 18.1 -11 13% 76.63 0.0
09 12:15 W 35 G 46 16.09 Fair and Breezy CLR 17.7 -11 13% 76.66 0.0
09 11:55 W 19 G 35 16.09 Fair CLR 16.8 -10.5 16.8 6.5 14% 76.66 0.0
09 11:35 W 24 G 35 16.09 Fair CLR 16.3 -10 16% 76.68 0.0
09 11:15 W 19 G 35 16.09 Fair CLR 16 -9 17% 76.68 0.0
09 10:55 W 24 G 31 16.09 Fair CLR 15.5 -8.7 18% 76.68 0.0
09 10:35 W 20 G 31 16.09 Fair CLR 15.6 -8 19% 76.68 0.0
09 10:15 W 30 G 39 16.09 Fair CLR 14.7 -8.1 20% 76.71 0.0
09 09:55 W 19 G 31 16.09 Fair CLR 14.2 -8.5 20% 76.71 0.0
09 09:35 W 28 G 41 16.09 Fair CLR 13.8 -8.6 20% 76.71 0.0
09 09:15 W 20 G 31 16.09 Fair CLR 13.1 -8.8 21% 76.71 0.0
09 08:55 W 24 G 35 16.09 Fair CLR 13 -9.3 20% 76.71 0.0
09 08:35 W 22 16.09 Fair CLR 12.4 -7.8 24% 76.68 0.0
09 08:15 W 24 G 35 16.09 Fair CLR 11.5 -7.3 26% 76.68 0.0
09 07:55 W 22 16.09 Fair CLR 10.4 -7.3 28% 76.68 0.0
09 07:35 W 22 G 31 16.09 Fair CLR 9.3 -7 31% 7 76.66 0.0
09 07:15 W 24 16.09 Fair CLR 8.1 -7 34% 5 76.63 0.0
09 06:55 W 20 16.09 Fair CLR 6.8 -6.4 39% 4 76.63 0.0
09 06:35 W 24 G 33 16.09 Fair CLR 6.7 -6 40% 3 76.61 0.0
09 06:15 W 22 16.09 Fair CLR 6.5 -6.9 38% 3 76.58 0.0
09 05:55 W 20 G 31 16.09 Fair CLR 6.5 -6.9 11.3 6.5 38% 3 76.56 0.0
09 05:35 W 22 16.09 Fair CLR 6.6 -5.6 42% 3 76.56 0.0
09 05:15 W 24 16.09 Fair CLR 7.3 -6.2 38% 4 76.53 0.0
09 04:55 W 26 G 35 16.09 Fair CLR 8 -6.5 35% 5 76.53 0.0
09 04:35 W 28 16.09 Fair CLR 8 -6.1 37% 4 76.5 0.0
09 04:15 W 24 16.09 Fair CLR 8 -5.4 39% 5 76.48 0.0
09 03:55 W 22 G 30 16.09 Fair CLR 8.3 -4.9 39% 5 76.48 0.0
09 03:35 W 22 16.09 Fair CLR 9 -4.6 38% 6 76.48 0.0
09 03:15 W 20 16.09 Fair CLR 8.8 -4.2 40% 6 76.48 0.0
09 02:55 W 20 16.09 Fair CLR 8.7 -3.6 42% 6 76.5 0.0
09 02:35 W 19 16.09 Fair CLR 9.3 -3.8 40% 7 76.5 0.0
09 02:15 W 22 16.09 Fair CLR 10 -3.9 38% 7 76.5 0.0
09 01:55 W 19 16.09 Fair CLR 10 -3.3 39% 8 76.5 0.0
09 01:35 W 17 16.09 Fair CLR 9.7 -3 41% 8 76.5 0.0
09 01:15 W 17 16.09 Fair CLR 8.5 -2.6 46% 6 76.53 0.0
09 00:55 W 13 16.09 Fair CLR 9.9 -2.8 41% 8 76.53 0.0
09 00:35 W 17 16.09 Fair CLR 11 -3.1 37% 76.5 0.0
09 00:15 SW 15 16.09 Fair CLR 11.1 -3.1 37% 76.5 0.0
08 23:55 W 17 16.09 Fair CLR 11.4 -3 19.5 11.1 37% 76.53 0.0
08 23:35 W 17 16.09 Fair CLR 11.4 -3 37% 76.53 0.0
08 23:15 W 15 16.09 Fair CLR 11.4 -2.7 38% 76.53 0.0
08 22:55 W 17 16.09 Fair CLR 11.4 -2.8 37% 76.5 0.0
08 22:35 W 13 16.09 Fair CLR 11.6 -3.2 36% 76.5 0.0
08 22:15 SW 11 16.09 Fair CLR 11.5 -3.1 36% 76.5 0.0
08 21:55 SW 15 16.09 Fair CLR 13.5 -3.6 31% 76.5 0.0
08 21:35 W 20 16.09 Fair CLR 13.5 -3.6 31% 76.48 0.0
08 21:15 W 19 16.09 Fair CLR 13.6 -3.7 30% 76.48 0.0
08 20:55 W 20 16.09 Fair CLR 14.4 -3.7 29% 76.48 0.0
08 20:35 W 24 G 31 16.09 Fair CLR 14.9 -4 27% 76.45 0.0
08 20:15 W 26 G 37 16.09 Fair CLR 15.6 -4 26% 76.45 0.0
08 19:55 W 19 G 35 16.09 Fair CLR 16.3 -3.8 25% 76.43 0.0
08 19:35 W 22 G 43 16.09 Fair CLR 16.9 -3.9 24% 76.43 0.0
08 19:15 W 30 G 46 16.09 Fair CLR 17.8 -3.6 23% 76.45 0.0
08 18:55 W 33 G 43 16.09 Fair and Breezy CLR 18.1 -3.7 23% 76.45 0.0
08 18:35 W 33 G 48 16.09 Fair and Breezy CLR 19 -3.4 22% 76.43 0.0
08 18:15 NW 37 G 56 16.09 Fair and Breezy CLR 19.2 -3.8 21% 76.4 0.0
08 17:55 NW 31 G 48 16.09 Fair CLR 19.2 -4.7 20.8 18.2 19% 76.43 0.0
08 17:35 NW 39 G 54 16.09 Fair and Breezy CLR 19.3 -5.2 19% 76.43 0.0
08 17:15 NW 44 G 54 16.09 Fair and Windy CLR 18.9 -4.7 20% 76.43 0.0
08 16:55 W 37 G 54 16.09 Fair and Breezy CLR 20.3 -5.2 18% 76.43 0.0
08 16:35 W 37 G 56 16.09 Fair and Breezy CLR 20.2 -5 18% 76.43 0.0
08 16:15 W 33 G 54 16.09 Fair and Breezy CLR 20.4 -5.3 17% 76.45 0.0
08 15:55 NW 41 G 52 16.09 Fair and Breezy CLR 20.3 -6 16% 76.45 0.0
08 15:35 NW 35 G 48 16.09 Fair and Breezy CLR 20.6 -6.4 16% 76.45 0.0
08 15:15 W 35 G 56 16.09 Fair and Breezy CLR 20.2 -7.6 15% 76.48 0.0
08 14:55 W 31 G 54 16.09 Fair CLR 20.1 -6.9 16% 76.48 0.0
08 14:35 W 35 G 54 16.09 Fair and Breezy CLR 20.1 -6.7 16% 76.48 0.0
08 14:15 W 35 G 52 16.09 Fair and Breezy CLR 20.3 -7 15% 76.48 0.0
08 13:55 W 28 G 48 16.09 Fair CLR 20.2 -6.4 16% 76.5 0.0
08 13:35 W 33 G 43 16.09 Fair and Breezy CLR 19.6 -5.9 17% 76.5 0.0
08 13:15 NW 26 G 41 16.09 Fair CLR 19.9 -6.5 16% 76.5 0.0
08 12:55 W 39 G 48 16.09 Fair and Breezy CLR 19.7 -7 16% 76.53 0.0
08 12:35 W 30 G 41 16.09 Fair CLR 19.2 -7 16% 76.53 0.0
08 12:15 W 33 G 41 16.09 Fair and Breezy CLR 19 -6.4 17% 76.56 0.0
08 11:55 NW 26 G 39 16.09 Fair CLR 18.3 -6.6 18.4 7.2 18% 76.56 0.0
08 11:35 NW 22 G 35 16.09 Fair CLR 18.1 -5.8 19% 76.56 0.0
08 11:15 W 19 G 35 16.09 Fair CLR 17.6 -5.4 20% 76.56 0.0
08 10:55 W 22 G 33 16.09 Fair CLR 17.2 -5.6 21% 76.56 0.0
08 10:35 W 26 G 37 16.09 Fair CLR 16.4 -5.6 22% 76.58 0.0
08 10:15 NW 20 G 35 16.09 Fair CLR 16.2 -6.1 21% 76.56 0.0
08 09:55 W 22 G 33 16.09 Fair CLR 15.4 -5.3 24% 76.56 0.0
08 09:35 NW 19 16.09 Fair CLR 14.6 -3.4 29% 76.56 0.0
08 09:15 NW 11 16.09 Fair CLR 13.6 -3.1 32% 76.56 0.0
08 08:55 W 13 16.09 Fair CLR 13.2 -2.7 33% 76.56 0.0
08 08:35 W 11 16.09 Fair CLR 12 -1 41% 76.56 0.0
08 08:15 W 17 16.09 Fair CLR 11.6 -3 36% 76.53 0.0
08 07:55 W 15 16.09 Fair CLR 10.6 -2.4 40% 76.53 0.0
08 07:35 W 15 16.09 Fair CLR 9.1 -2 46% 7 76.5 0.0
08 07:15 W 17 16.09 Fair CLR 7.8 -2.5 48% 5 76.5 0.0
08 06:55 W 17 16.09 Fair CLR 7.3 -2.5 50% 5 76.48 0.0
08 06:35 W 19 16.09 Fair CLR 7.3 -2.5 50% 4 76.48 0.0
08 06:15 W 19 16.09 Fair CLR 7.3 -2.3 51% 4 76.45 0.0
08 05:55 W 17 16.09 Fair CLR 7.9 -2 10 7.7 50% 5 76.45 0.0
08 05:35 W 19 16.09 Fair CLR 8.5 -2.6 46% 6 76.45 0.0
08 05:15 W 19 16.09 Fair CLR 8.5 -3.2 44% 6 76.45 0.0
08 04:55 W 19 16.09 Fair CLR 8.4 -3.3 44% 6 76.45 0.0
08 04:35 W 19 16.09 Fair CLR 8.7 -3.5 42% 6 76.45 0.0
08 04:15 W 22 16.09 Fair CLR 9.1 -3.5 41% 6 76.43 0.0
08 03:55 W 22 16.09 Fair CLR 9.7 -3.5 40% 7 76.43 0.0
08 03:35 W 20 16.09 Fair CLR 9.6 -3.4 40% 7 76.43 0.0
08 03:15 SW 20 16.09 Fair CLR 9.5 -3 42% 7 76.43 0.0
08 02:55 SW 20 16.09 Fair CLR 9.7 -2.5 43% 7 76.45 0.0
08 02:35 W 19 16.09 Fair CLR 9.1 -1.8 47% 7 76.45 0.0
08 02:15 W 15 16.09 Fair CLR 8.6 -1.2 51% 6 76.48 0.0
08 01:55 W 17 16.09 Fair CLR 8.9 -1.1 50% 7 76.48 0.0
08 01:35 W 17 16.09 Fair CLR 9 -1 50% 7 76.5 0.0
08 01:15 W 15 16.09 Fair CLR 9 -1 50% 7 76.5 0.0
08 00:55 W 15 16.09 Fair CLR 9.2 -1 49% 7 76.5 0.0
08 00:35 W 15 16.09 Fair CLR 9.7 -1 48% 8 76.48 0.0
08 00:15 W 15 16.09 Fair CLR 9.7 -1 48% 8 76.48 0.0
07 23:55 W 15 16.09 Fair CLR 10 -1 17.6 9.1 47% 8 76.48 0.0
07 23:35 W 13 16.09 Fair CLR 10.3 -1 46% 76.48 0.0
07 23:15 W 15 16.09 Fair CLR 10.7 -1 45% 76.48 0.0
07 22:55 W 15 16.09 Fair CLR 9.8 -1 47% 8 76.48 0.0
07 22:35 W 15 16.09 Fair CLR 10 -1 47% 8 76.48 0.0
07 22:15 W 13 16.09 Fair CLR 9.5 -1 48% 8 76.48 0.0
07 21:55 W 11 16.09 Fair CLR 9.7 -1.3 47% 8 76.48 0.0
07 21:35 W 11 16.09 Fair CLR 10.8 -1.7 42% 76.45 0.0
07 21:15 W 9 16.09 Fair CLR 11.4 -2 40% 76.45 0.0
07 20:55 W 9 16.09 Fair CLR 12 -2.5 37% 76.43 0.0
07 20:35 NW 15 16.09 Fair CLR 13.3 -3.1 32% 76.43 0.0
07 20:15 W 26 G 35 16.09 Fair CLR 14.7 -3.6 28% 76.4 0.0
07 19:55 NW 35 G 46 16.09 Fair and Breezy CLR 15.6 -4.2 25% 76.4 0.0
07 19:35 NW 37 G 50 16.09 Fair and Breezy CLR 16.3 -5.7 22% 76.38 0.0
07 19:15 W 31 G 41 16.09 Partly Cloudy SCT095 16.8 -4.4 23% 76.35 0.0
07 18:55 W 35 G 44 16.09 Partly Cloudy and Breezy SCT095 17.2 -4.8 22% 76.4 0.0
07 18:35 W 33 G 56 16.09 Fair and Breezy CLR 17.2 -5.3 21% 76.4 0.0
07 18:15 W 31 G 46 16.09 Fair CLR 17.3 -5.8 20% 76.4 0.0
07 17:55 NW 37 G 56 16.09 Fair and Breezy CLR 17.6 -6 19.9 16.1 20% 76.4 0.0
07 17:35 NW 33 G 44 16.09 Fair and Breezy CLR 16.1 -5.3 23% 76.43 0.0
07 17:15 W 30 G 48 16.09 Partly Cloudy SCT120 16.3 -5.5 22% 76.43 0.0
07 16:55 W 44 G 56 16.09 Fair and Windy CLR 16.8 -6.5 20% 76.45 0.0
07 16:35 W 46 G 57 16.09 Fair and Windy CLR 17.1 -6.6 19% 76.43 0.0
07 16:15 NW 44 G 63 16.09 Fair and Windy CLR 18.4 -7.6 16% 76.45 0.0
07 15:55 W 46 G 69 16.09 Partly Cloudy and Windy SCT080 18.5 -10.5 13% 76.45 0.0
07 15:35 W 48 G 65 16.09 Partly Cloudy and Windy SCT085 SCT090 19 -7.8 16% 76.45 0.0
07 15:15 NW 52 G 67 16.09 Partly Cloudy and Windy SCT085 18.8 -6.8 17% 76.45 0.0
07 14:55 W 33 G 56 16.09 Partly Cloudy and Breezy SCT075 SCT090 18.5 -4.8 20% 76.45 0.0
07 14:35 W 35 G 52 16.09 Partly Cloudy and Breezy SCT075 17.2 -3.5 24% 76.45 0.0
07 14:15 W 31 G 54 16.09 Fair CLR 17.4 -3.6 24% 76.45 0.0
07 13:55 W 39 G 57 16.09 Fair and Breezy CLR 19.2 -3.7 21% 76.45 0.0
07 13:35 W 41 G 54 16.09 Partly Cloudy and Breezy SCT070 17.3 -3.3 24% 76.48 0.0
07 13:15 W 44 G 59 16.09 Partly Cloudy and Windy SCT070 18 -3.6 23% 76.48 0.0
07 12:55 W 46 G 57 16.09 Partly Cloudy and Windy SCT070 17.9 -2.8 24% 76.48 0.0
07 12:35 W 35 G 54 16.09 Partly Cloudy and Breezy SCT070 18 -2.7 24% 76.5 0.0
07 12:15 W 35 G 52 16.09 Fair and Breezy CLR 17.9 -2.5 25% 76.53 0.0
07 11:55 W 37 G 52 16.09 Fair and Breezy CLR 17.5 -2.1 17.5 5.5 26% 76.53 0.0
07 11:35 W 39 G 52 16.09 Fair and Breezy CLR 16.5 -3 26% 76.53 0.0
07 11:15 W 44 G 54 16.09 Fair and Windy CLR 16.5 -3.3 26% 76.53 0.0
07 10:55 W 39 G 48 16.09 Fair and Breezy CLR 16.3 -2.7 27% 76.56 0.0
07 10:35 W 28 G 43 16.09 Fair CLR 15.8 -2.6 28% 76.58 0.0
07 10:15 W 24 G 37 16.09 Fair CLR 13.8 -1 36% 76.61 0.0
07 09:55 W 15 16.09 Fair CLR 12 -1.8 39% 76.61 0.0
07 09:35 W 13 16.09 Partly Cloudy SCT120 11.2 -2.2 39% 76.63 0.0
07 09:15 N 13 16.09 Mostly Cloudy SCT065 SCT085 BKN120 9 -1.3 49% 7 76.66 0.0
Date Time (mdt) Wind (kph) Vis. (km) Weather Sky Cond. Air Dwpt Max. Min. Relative Humidity Wind Chill (°C) Heat Index (°C) altimeter (cm) sea level (mb) 1 hr 3 hr 6 hr
6 hour
Temperature (ºC) Pressure Precipitation (cm)